Overview Statistics Trail Chart Weather Telemetry Raw packets
 

This is the latest recevied weather packets stored in our database for station/object KD4EG. If no packets are shown the sender has not sent any weather packets the latest 10 day(s).

<< 50 51 52 53 54 55 56 >>
Time Temp. Humidity Pressure Rain* Wind** Luminosity Snow
1788307981 28.89° C 71% 1019.6 hPa 0 mm - 0 W/m² -
1788307681 28.89° C 70% 1019.8 hPa 0 mm - 0 W/m² -
1788307375 29.44° C 69% 1019.5 hPa 0 mm - 0 W/m² -
1788307070 29.44° C 69% 1019.9 hPa 0 mm - 0 W/m² -
1788306765 29.44° C 69% 1019.8 hPa 0 mm - 0 W/m² -
1788306464 29.44° C 69% 1019.9 hPa 0 mm - 3 W/m² -
1788306159 30° C 68% 1019.9 hPa 0 mm - 5 W/m² -
1788305854 30.56° C 65% 1019.9 hPa 0 mm - 9 W/m² -
1788305551 31.11° C 62% 1020 hPa 0 mm - 14 W/m² -
1788305251 31.67° C 60% 1019.9 hPa 0 mm - 19 W/m² -
1788304946 32.22° C 57% 1019.9 hPa 0 mm - 25 W/m² -
1788304642 32.78° C 54% 1020.1 hPa 0 mm - 32 W/m² -
1788304338 32.78° C 54% 1019.9 hPa 0 mm - 37 W/m² -
1788304033 32.78° C 54% 1020.1 hPa 0 mm - 42 W/m² -
1788303727 32.78° C 54% 1020.1 hPa 0 mm - 49 W/m² -
1788303423 32.78° C 54% 1020.1 hPa 0 mm - 53 W/m² -
1788303138 32.78° C 53% 1020 hPa 0 mm - 55 W/m² -
1788302813 32.78° C 53% 1020.2 hPa 0 mm - 71 W/m² -
1788302509 32.78° C 53% 1020.1 hPa 0 mm - 84 W/m² -
1788302204 32.78° C 53% 1020.1 hPa 0 mm - 85 W/m² -
1788301900 32.78° C 53% 1020 hPa 0 mm - 83 W/m² -
1788301596 33.33° C 53% 1020 hPa 0 mm - 95 W/m² -
1788301292 33.33° C 53% 1020 hPa 0 mm - 106 W/m² -
1788300987 33.33° C 52% 1020 hPa 0 mm - 100 W/m² -
1788300683 33.33° C 52% 1019.9 hPa 0 mm - 117 W/m² -

* Rain latest hour (hover to see other rain measurements)
** Current wind speed in m/s (hover to see current wind gust speed)